Flag Weather past 2 weeks in Playa del Carmen, Quintana Roo, Mexico

Now
75 °F

Scattered clouds.


Feels Like: 75 °F
Forecast: 75 / 84 °F
Wind: 7 mph from North

Location: Cozumel Civ / Mil

Current Time: Oct 31, 2014 at 8:18:22 AM

Latest Report: Oct 31, 2014 at 7:40 AM


Visibility: 8 mi

Pressure: 29.95 "Hg

Humidity: 89%

Dew point: 72 °F

Location of Playa del CarmenLocation

Historic Weather in Playa del Carmen — Graph

°F

Playa del Carmen temperature yesterday

Maximum temperature yesterday: 81 °F (at 9:40 AM)
Minimum temperature yesterday: 70 °F (at 9:45 PM)
Average temperature yesterday: 76 °F

Past Weeks' High & Low Weather Summary

 TemperatureHumidityPressure
High84 °F (Oct 27, 4:45 AM)100% (Oct 16, 7:40 AM)30.04 "Hg (Oct 16, 7:40 AM)
Low34 °F (Oct 20, 8:22 AM)48% (Oct 27, 4:45 AM)29.73 "Hg (Oct 25, 2:42 PM)
Average75 °F92%29.91 "Hg
* Reported Oct 16 7:40 AM — Oct 31 6:44 AM, Playa del Carmen, Weather by CustomWeather, © 2014

Note: Actual official high and low records may vary slightly from our data, if they occured in-between our weather recording intervals... More about our weather records

Advertising

Playa del Carmen weather history for previous 24 hours

 ConditionsComfort  
Time TempWeatherWind HumidityBarometerVisibility
6:44 AM
Oct 31
73 °FScattered clouds.7 mph94%29.93 "Hg7 mi
5:43 AM72 °FPassing clouds.8 mph100%29.89 "Hg7 mi
4:42 AM73 °FPassing clouds.5 mph94%29.91 "Hg7 mi
3:14 AM73 °FPassing clouds.7 mph94%29.93 "Hg7 mi
1:44 AM73 °FPassing clouds.6 mph94%29.90 "Hg7 mi
12:55 AM73 °FPassing clouds.8 mph100%29.92 "Hg7 mi
11:44 PM
Oct 30
73 °FPassing clouds.5 mph94%29.90 "Hg7 mi
10:46 PM73 °FPassing clouds.5 mph100%29.93 "Hg7 mi
9:45 PM70 °FPassing clouds.No wind100%29.94 "Hg7 mi
8:43 PM72 °FPassing clouds.No wind100%29.95 "Hg7 mi
7:48 PM72 °FPassing clouds.No wind100%29.92 "Hg7 mi
6:41 PM72 °FPassing clouds.No wind100%29.91 "Hg7 mi
5:52 PM75 °FPassing clouds.No wind94%29.87 "Hg7 mi
4:47 PM77 °FScattered clouds.3 mph89%29.88 "Hg8 mi
3:48 PM79 °FScattered clouds.8 mph89%29.87 "Hg8 mi
2:46 PM81 °FScattered clouds.7 mph79%29.90 "Hg8 mi
1:44 PM81 °FScattered clouds.9 mph79%29.89 "Hg8 mi
12:42 PM81 °FScattered clouds.12 mph79%29.90 "Hg8 mi
11:43 AM81 °FScattered clouds.8 mph79%29.93 "Hg8 mi
10:46 AM79 °FScattered clouds.9 mph84%29.96 "Hg8 mi
9:40 AM81 °FScattered clouds.7 mph84%29.98 "Hg8 mi
8:40 AM79 °FScattered clouds.7 mph84%29.99 "Hg8 mi
Weather by CustomWeather, © 2014

See weather overviewHow to use our weather pages